| time (UTC) | temp F | wind direction | speed MPH | gust MPH | rain 1hr in | rain 24hr in | rain mn in | humidity % | barometer mb |
| 20260905161018 | 49 | 117 | 0.0 | 0.0 | 0.00 | 0.00 | 0.00 | 69 | 1022.2 |
| 20260905160519 | 50 | 117 | 0.0 | 0.0 | 0.00 | 0.00 | 0.00 | 68 | 1022.1 |
| 20260905160054 | 50 | 117 | 0.0 | 0.0 | 0.00 | 0.00 | 0.00 | 67 | 1021.9 |
| 20260905155519 | 51 | 118 | 0.0 | 0.0 | 0.00 | 0.00 | 0.00 | 65 | 1022.0 |
| 20260905155020 | 52 | 117 | 0.0 | 0.0 | 0.00 | 0.00 | 0.00 | 65 | 1021.9 |
| 20260905154544 | 52 | 117 | 0.0 | 0.0 | 0.00 | 0.00 | 0.00 | 66 | 1021.9 |
| 20260905153056 | 50 | 117 | 0.0 | 0.0 | 0.00 | 0.00 | 0.00 | 65 | 1022.0 |
| 20260905152520 | 50 | 117 | 0.0 | 0.0 | 0.00 | 0.00 | 0.00 | 67 | 1022.0 |
| 20260905152020 | 50 | 117 | 0.0 | 0.0 | 0.00 | 0.00 | 0.00 | 66 | 1022.0 |
| 20260905151550 | 50 | 117 | 0.0 | 0.0 | 0.00 | 0.00 | 0.00 | 65 | 1021.9 |
| 20260905151018 | 50 | 117 | 0.0 | 0.0 | 0.00 | 0.00 | 0.00 | 65 | 1022.0 |
| 20260905150519 | 50 | 117 | 0.0 | 0.0 | 0.00 | 0.00 | 0.00 | 68 | 1021.9 |
| 20260905150050 | 49 | 117 | 0.0 | 0.0 | 0.00 | 0.00 | 0.00 | 68 | 1021.7 |
| 20260905145517 | 48 | 117 | 0.0 | 0.0 | 0.00 | 0.00 | 0.00 | 71 | 1021.9 |
| 20260905145018 | 47 | 116 | 0.0 | 0.0 | 0.00 | 0.00 | 0.00 | 73 | 1021.9 |
| 20260905144558 | 46 | 116 | 0.0 | 0.0 | 0.00 | 0.00 | 0.00 | 72 | 1021.9 |
| 20260905143049 | 46 | 116 | 0.0 | 0.0 | 0.00 | 0.00 | 0.00 | 75 | 1021.8 |
| 20260905142523 | 46 | 116 | 0.0 | 0.0 | 0.00 | 0.00 | 0.00 | 74 | 1021.7 |
| 20260905142019 | 45 | 116 | 0.0 | 0.0 | 0.00 | 0.00 | 0.00 | 75 | 1021.8 |
| 20260905141548 | 45 | 116 | 0.0 | 0.0 | 0.00 | 0.00 | 0.00 | 76 | 1021.8 |
| 20260905140057 | 44 | 116 | 0.0 | 0.0 | 0.00 | 0.00 | 0.00 | 78 | 1021.9 |
| 20260905135518 | 43 | 116 | 0.0 | 0.0 | 0.00 | 0.00 | 0.00 | 79 | 1021.9 |
| 20260905135018 | 43 | 116 | 0.0 | 0.0 | 0.00 | 0.00 | 0.00 | 79 | 1021.9 |
| 20260905134550 | 42 | 116 | 0.0 | 0.0 | 0.00 | 0.00 | 0.00 | 80 | 1022.0 |
| 20260905134019 | 42 | 116 | 0.0 | 0.0 | 0.00 | 0.00 | 0.00 | 80 | 1021.9 |
| 20260905133519 | 42 | 116 | 0.0 | 0.0 | 0.00 | 0.00 | 0.00 | 80 | 1021.9 |
| 20260905133048 | 42 | 116 | 0.0 | 0.0 | 0.00 | 0.00 | 0.00 | 80 | 1021.9 |
| 20260905132517 | 42 | 116 | 0.0 | 0.0 | 0.00 | 0.00 | 0.00 | 80 | 1021.9 |
| 20260905132016 | 42 | 116 | 0.0 | 0.0 | 0.00 | 0.00 | 0.00 | 80 | 1021.9 |
| 20260905131619 | 42 | 116 | 0.0 | 0.0 | 0.00 | 0.00 | 0.00 | 80 | 1021.9 |
| 20260905130055 | 42 | 116 | 0.0 | 0.0 | 0.00 | 0.00 | 0.00 | 80 | 1021.8 |
| 20260905125518 | 42 | 116 | 0.0 | 0.0 | 0.00 | 0.00 | 0.00 | 80 | 1021.8 |
| 20260905125019 | 42 | 116 | 0.0 | 0.0 | 0.00 | 0.00 | 0.00 | 80 | 1021.8 |
| 20260905124551 | 42 | 116 | 0.0 | 0.0 | 0.00 | 0.00 | 0.00 | 80 | 1021.8 |
| 20260905124017 | 42 | 116 | 0.0 | 0.0 | 0.00 | 0.00 | 0.00 | 80 | 1021.8 |
| 20260905123518 | 42 | 116 | 0.0 | 0.0 | 0.00 | 0.00 | 0.00 | 79 | 1021.8 |
| 20260905123056 | 42 | 116 | 0.0 | 0.0 | 0.00 | 0.00 | 0.00 | 79 | 1021.8 |
| 20260905122519 | 42 | 116 | 0.0 | 0.0 | 0.00 | 0.00 | 0.00 | 79 | 1021.8 |
| 20260905122017 | 42 | 116 | 0.0 | 0.0 | 0.00 | 0.00 | 0.00 | 78 | 1021.7 |
| 20260905121554 | 42 | 116 | 0.0 | 0.0 | 0.00 | 0.00 | 0.00 | 78 | 1021.7 |
| 20260905120054 | 42 | 116 | 0.0 | 0.0 | 0.00 | 0.00 | 0.00 | 76 | 1021.8 |
| 20260905115517 | 42 | 116 | 0.0 | 0.0 | 0.00 | 0.00 | 0.00 | 76 | 1021.7 |
| 20260905115019 | 42 | 116 | 0.0 | 0.0 | 0.00 | 0.00 | 0.00 | 75 | 1021.7 |
| 20260905114547 | 42 | 116 | 0.0 | 0.0 | 0.00 | 0.00 | 0.00 | 75 | 1021.7 |
| 20260905114016 | 42 | 116 | 0.0 | 0.0 | 0.00 | 0.00 | 0.00 | 75 | 1021.7 |
| 20260905113518 | 42 | 116 | 0.0 | 0.0 | 0.00 | 0.00 | 0.00 | 75 | 1021.7 |
| 20260905113044 | 42 | 116 | 0.0 | 0.0 | 0.00 | 0.00 | 0.00 | 75 | 1021.7 |
| 20260905111557 | 42 | 116 | 0.0 | 0.0 | 0.00 | 0.00 | 0.00 | 74 | 1021.6 |
| 20260905110517 | 42 | 116 | 0.0 | 0.0 | 0.00 | 0.00 | 0.00 | 74 | 1021.7 |
| 20260905110051 | 42 | 116 | 0.0 | 0.0 | 0.00 | 0.00 | 0.00 | 73 | 1021.7 |
| 20260905105518 | 43 | 116 | 0.0 | 0.0 | 0.00 | 0.00 | 0.00 | 73 | 1021.7 |
| 20260905105020 | 43 | 116 | 0.0 | 0.0 | 0.00 | 0.00 | 0.00 | 74 | 1021.6 |
| 20260905104546 | 43 | 116 | 0.0 | 0.0 | 0.00 | 0.00 | 0.00 | 74 | 1021.6 |
| 20260905104017 | 43 | 116 | 0.0 | 0.0 | 0.00 | 0.00 | 0.00 | 75 | 1021.7 |
| 20260905103525 | 43 | 116 | 0.0 | 0.0 | 0.00 | 0.00 | 0.00 | 75 | 1021.7 |
| 20260905103055 | 43 | 116 | 0.0 | 0.0 | 0.00 | 0.00 | 0.00 | 75 | 1021.6 |
| 20260905102020 | 42 | 116 | 0.0 | 0.0 | 0.00 | 0.00 | 0.00 | 75 | 1021.6 |
| 20260905101613 | 42 | 116 | 0.0 | 0.0 | 0.00 | 0.00 | 0.00 | 75 | 1021.6 |
| 20260905101020 | 42 | 116 | 0.0 | 0.0 | 0.00 | 0.00 | 0.00 | 75 | 1021.4 |
| 20260905095517 | 43 | 116 | 0.0 | 0.0 | 0.00 | 0.00 | 0.00 | 75 | 1021.4 |
| 20260905095019 | 43 | 116 | 0.0 | 0.0 | 0.00 | 0.00 | 0.00 | 74 | 1021.4 |
| 20260905094018 | 43 | 116 | 0.0 | 0.0 | 0.00 | 0.00 | 0.00 | 74 | 1021.3 |
| 20260905093516 | 43 | 116 | 0.0 | 0.0 | 0.00 | 0.00 | 0.00 | 74 | 1021.4 |
| 20260905092518 | 43 | 116 | 0.0 | 0.0 | 0.00 | 0.00 | 0.00 | 73 | 1021.4 |
| 20260905092022 | 43 | 116 | 0.0 | 0.0 | 0.00 | 0.00 | 0.00 | 73 | 1021.4 |
| 20260905091020 | 43 | 116 | 0.0 | 0.0 | 0.00 | 0.00 | 0.00 | 73 | 1021.5 |
| 20260905090519 | 43 | 116 | 0.0 | 0.0 | 0.00 | 0.00 | 0.00 | 72 | 1021.4 |
| 20260905090040 | 44 | 116 | 0.0 | 0.0 | 0.00 | 0.00 | 0.00 | 71 | 1021.3 |
| 20260905085516 | 44 | 116 | 0.0 | 0.0 | 0.00 | 0.00 | 0.00 | 71 | 1021.3 |
| 20260905085016 | 44 | 116 | 0.0 | 0.0 | 0.00 | 0.00 | 0.00 | 71 | 1021.2 |
| 20260905084557 | 44 | 116 | 0.0 | 0.0 | 0.00 | 0.00 | 0.00 | 71 | 1021.1 |
| 20260905084018 | 44 | 116 | 0.0 | 0.0 | 0.00 | 0.00 | 0.00 | 71 | 1021.2 |
| 20260905083516 | 44 | 116 | 0.0 | 0.0 | 0.00 | 0.00 | 0.00 | 71 | 1021.2 |
| 20260905082519 | 44 | 116 | 0.0 | 0.0 | 0.00 | 0.00 | 0.00 | 71 | 1021.1 |
| 20260905082017 | 44 | 116 | 0.0 | 0.0 | 0.00 | 0.00 | 0.00 | 71 | 1021.1 |
| 20260905081017 | 44 | 116 | 0.0 | 0.0 | 0.00 | 0.00 | 0.00 | 71 | 1021.0 |
| 20260905080517 | 44 | 116 | 0.0 | 0.0 | 0.00 | 0.00 | 0.00 | 71 | 1021.0 |
| 20260905075520 | 44 | 116 | 0.0 | 0.0 | 0.00 | 0.00 | 0.00 | 70 | 1020.9 |
| 20260905075015 | 44 | 116 | 0.0 | 0.0 | 0.00 | 0.00 | 0.00 | 70 | 1020.9 |
| 20260905074019 | 44 | 116 | 0.0 | 0.0 | 0.00 | 0.00 | 0.00 | 70 | 1020.8 |
| 20260905073523 | 44 | 116 | 0.0 | 0.0 | 0.00 | 0.00 | 0.00 | 70 | 1020.7 |
| 20260905073035 | 44 | 116 | 0.0 | 0.0 | 0.00 | 0.00 | 0.00 | 70 | 1020.8 |
| 20260905072520 | 44 | 116 | 0.0 | 0.0 | 0.00 | 0.00 | 0.00 | 71 | 1020.8 |
| 20260905072020 | 44 | 116 | 0.0 | 0.0 | 0.00 | 0.00 | 0.00 | 70 | 1020.8 |
| 20260905071020 | 45 | 116 | 0.0 | 0.0 | 0.00 | 0.00 | 0.00 | 70 | 1020.8 |
| 20260905070519 | 44 | 116 | 0.0 | 0.0 | 0.00 | 0.00 | 0.00 | 70 | 1020.8 |
| 20260905065517 | 44 | 116 | 0.0 | 0.0 | 0.00 | 0.00 | 0.00 | 70 | 1020.7 |
| 20260905065018 | 44 | 116 | 0.0 | 0.0 | 0.00 | 0.00 | 0.00 | 71 | 1020.8 |
| 20260905064018 | 44 | 116 | 0.0 | 0.0 | 0.00 | 0.00 | 0.00 | 72 | 1020.7 |
| 20260905063520 | 44 | 116 | 0.0 | 0.0 | 0.00 | 0.00 | 0.00 | 72 | 1020.6 |
| 20260905062522 | 44 | 116 | 0.0 | 0.0 | 0.00 | 0.00 | 0.00 | 71 | 1020.6 |
| 20260905062019 | 44 | 116 | 0.0 | 0.0 | 0.00 | 0.00 | 0.00 | 70 | 1020.6 |
| 20260905061022 | 45 | 116 | 0.0 | 0.0 | 0.00 | 0.00 | 0.00 | 69 | 1020.6 |
| 20260905060519 | 45 | 116 | 0.0 | 0.0 | 0.00 | 0.00 | 0.00 | 70 | 1020.6 |
| 20260905055521 | 45 | 116 | 0.0 | 0.0 | 0.00 | 0.00 | 0.00 | 70 | 1020.6 |
| 20260905055021 | 45 | 116 | 0.0 | 0.0 | 0.00 | 0.00 | 0.00 | 70 | 1020.6 |
| 20260905054538 | 45 | 116 | 0.0 | 0.0 | 0.00 | 0.00 | 0.00 | 70 | 1020.7 |
| 20260905054018 | 45 | 116 | 0.0 | 0.0 | 0.00 | 0.00 | 0.00 | 69 | 1020.6 |
| 20260905053516 | 45 | 116 | 0.0 | 0.0 | 0.00 | 0.00 | 0.00 | 69 | 1020.7 |
| 20260905053040 | 45 | 116 | 0.0 | 0.0 | 0.00 | 0.00 | 0.00 | 69 | 1020.6 |
| 20260905052018 | 45 | 116 | 0.0 | 0.0 | 0.00 | 0.00 | 0.00 | 69 | 1020.6 |
| 20260905051542 | 45 | 116 | 0.0 | 0.0 | 0.00 | 0.00 | 0.00 | 70 | 1020.6 |
| 20260905051019 | 45 | 116 | 0.0 | 0.0 | 0.00 | 0.00 | 0.00 | 70 | 1020.6 |
| 20260905050519 | 45 | 116 | 0.0 | 0.0 | 0.00 | 0.00 | 0.00 | 70 | 1020.5 |
| 20260905045518 | 45 | 116 | 0.0 | 0.0 | 0.00 | 0.00 | 0.00 | 69 | 1020.6 |
| 20260905045022 | 45 | 116 | 0.0 | 0.0 | 0.00 | 0.00 | 0.00 | 69 | 1020.5 |
| 20260905044538 | 45 | 116 | 0.0 | 0.0 | 0.00 | 0.00 | 0.00 | 69 | 1020.4 |
| 20260905044020 | 45 | 116 | 0.0 | 0.0 | 0.00 | 0.00 | 0.00 | 69 | 1020.6 |
| 20260905043516 | 45 | 116 | 0.0 | 0.0 | 0.00 | 0.00 | 0.00 | 68 | 1020.5 |
| 20260905043047 | 45 | 116 | 0.0 | 0.0 | 0.00 | 0.00 | 0.00 | 68 | 1020.5 |
| 20260905042017 | 45 | 116 | 0.0 | 0.0 | 0.00 | 0.00 | 0.00 | 68 | 1020.6 |
| 20260905041542 | 45 | 116 | 0.0 | 0.0 | 0.00 | 0.00 | 0.00 | 68 | 1020.5 |
| 20260905041019 | 45 | 116 | 0.0 | 0.0 | 0.00 | 0.00 | 0.00 | 68 | 1020.5 |
| 20260905040519 | 44 | 116 | 0.0 | 0.0 | 0.00 | 0.00 | 0.00 | 69 | 1020.6 |
| 20260905040045 | 44 | 116 | 0.0 | 0.0 | 0.00 | 0.00 | 0.00 | 69 | 1020.5 |
| 20260905035517 | 44 | 116 | 0.0 | 0.0 | 0.00 | 0.00 | 0.00 | 69 | 1020.4 |
| 20260905034547 | 45 | 116 | 0.0 | 0.0 | 0.00 | 0.00 | 0.00 | 69 | 1020.5 |
| 20260905033517 | 45 | 116 | 0.0 | 0.0 | 0.00 | 0.00 | 0.00 | 69 | 1020.4 |
| 20260905033042 | 44 | 116 | 0.0 | 0.0 | 0.00 | 0.00 | 0.00 | 70 | 1020.3 |
| 20260905032520 | 44 | 116 | 0.0 | 0.0 | 0.00 | 0.00 | 0.00 | 70 | 1020.3 |
| 20260905032018 | 44 | 116 | 0.0 | 0.0 | 0.00 | 0.00 | 0.00 | 70 | 1020.3 |
| 20260905031539 | 44 | 116 | 0.0 | 0.0 | 0.00 | 0.00 | 0.00 | 70 | 1020.2 |
| 20260905031018 | 44 | 116 | 0.0 | 0.0 | 0.00 | 0.00 | 0.00 | 70 | 1020.0 |
| 20260905030519 | 44 | 116 | 0.0 | 0.0 | 0.00 | 0.00 | 0.00 | 70 | 1019.8 |
| 20260905030043 | 44 | 116 | 0.0 | 0.0 | 0.00 | 0.00 | 0.00 | 70 | 1019.8 |
| 20260905024606 | 45 | 116 | 0.0 | 0.0 | 0.00 | 0.00 | 0.00 | 71 | 1019.9 |
| 20260905024018 | 45 | 116 | 0.0 | 0.0 | 0.00 | 0.00 | 0.00 | 71 | 1019.8 |
| 20260905023519 | 45 | 116 | 0.0 | 0.0 | 0.00 | 0.00 | 0.00 | 70 | 1019.8 |
| 20260905023045 | 46 | 116 | 0.0 | 0.0 | 0.00 | 0.00 | 0.00 | 69 | 1019.8 |
| 20260905022519 | 46 | 116 | 0.0 | 0.0 | 0.00 | 0.00 | 0.00 | 68 | 1019.7 |
| 20260905022017 | 47 | 116 | 0.0 | 0.0 | 0.00 | 0.00 | 0.00 | 67 | 1019.6 |
| 20260905021548 | 47 | 116 | 0.0 | 0.0 | 0.00 | 0.00 | 0.00 | 66 | 1019.6 |
| 20260905021017 | 47 | 116 | 0.0 | 0.0 | 0.00 | 0.00 | 0.00 | 66 | 1019.7 |
| 20260905020516 | 47 | 116 | 0.0 | 0.0 | 0.00 | 0.00 | 0.00 | 66 | 1019.7 |
| 20260905020050 | 47 | 116 | 0.0 | 0.0 | 0.00 | 0.00 | 0.00 | 66 | 1019.7 |
| 20260905015021 | 48 | 116 | 0.0 | 0.0 | 0.00 | 0.00 | 0.00 | 65 | 1019.6 |
| 20260905014545 | 48 | 116 | 0.0 | 0.0 | 0.00 | 0.00 | 0.00 | 64 | 1019.7 |
| 20260905014021 | 48 | 116 | 0.0 | 0.0 | 0.00 | 0.00 | 0.00 | 64 | 1019.7 |
| 20260905013520 | 49 | 116 | 0.0 | 0.0 | 0.00 | 0.00 | 0.00 | 63 | 1019.6 |
| 20260905013051 | 49 | 116 | 0.0 | 0.0 | 0.00 | 0.00 | 0.00 | 63 | 1019.4 |
| 20260905012516 | 49 | 116 | 0.0 | 0.0 | 0.00 | 0.00 | 0.00 | 64 | 1019.5 |
| 20260905012016 | 49 | 116 | 0.0 | 0.0 | 0.00 | 0.00 | 0.00 | 62 | 1019.5 |
| 20260905011553 | 48 | 116 | 0.0 | 0.0 | 0.00 | 0.00 | 0.00 | 62 | 1019.4 |
| 20260905011020 | 49 | 116 | 0.0 | 0.0 | 0.00 | 0.00 | 0.00 | 63 | 1019.3 |
| 20260905010044 | 49 | 117 | 0.0 | 0.0 | 0.00 | 0.00 | 0.00 | 62 | 1019.4 |
| 20260905005523 | 49 | 116 | 0.0 | 0.0 | 0.00 | 0.00 | 0.00 | 62 | 1019.6 |
| 20260905005020 | 49 | 116 | 0.0 | 0.0 | 0.00 | 0.00 | 0.00 | 62 | 1019.5 |
| 20260905004550 | 50 | 117 | 0.0 | 0.0 | 0.00 | 0.00 | 0.00 | 63 | 1019.4 |
| 20260905004019 | 50 | 117 | 0.0 | 0.0 | 0.00 | 0.00 | 0.00 | 62 | 1019.3 |
| 20260905003519 | 50 | 117 | 0.0 | 0.0 | 0.00 | 0.00 | 0.00 | 62 | 1019.1 |
| 20260905003048 | 50 | 117 | 0.0 | 0.0 | 0.00 | 0.00 | 0.00 | 62 | 1019.2 |
| 20260905002517 | 51 | 117 | 0.0 | 0.0 | 0.00 | 0.00 | 0.00 | 62 | 1019.1 |
| 20260905002018 | 51 | 117 | 0.0 | 0.0 | 0.00 | 0.00 | 0.00 | 61 | 1019.3 |
| 20260905001544 | 51 | 116 | 0.0 | 0.0 | 0.00 | 0.00 | 0.00 | 59 | 1019.3 |
| 20260905000518 | 52 | 117 | 0.0 | 0.0 | 0.00 | 0.00 | 0.00 | 55 | 1019.1 |
| 20260905000044 | 52 | 117 | 0.0 | 0.0 | 0.00 | 0.00 | 0.00 | 54 | 1019.2 |
| 20260904235519 | 52 | 117 | 0.0 | 0.0 | 0.00 | 0.00 | 0.00 | 53 | 1019.3 |
| 20260904235023 | 52 | 117 | 0.0 | 0.0 | 0.00 | 0.00 | 0.00 | 53 | 1019.2 |
| 20260904234548 | 53 | 117 | 0.0 | 6.0 | 0.00 | 0.00 | 0.00 | 53 | 1019.2 |
| 20260904234020 | 52 | 117 | 0.0 | 6.0 | 0.00 | 0.00 | 0.00 | 55 | 1019.3 |
| 20260904233519 | 52 | 117 | 0.0 | 1.0 | 0.00 | 0.00 | 0.00 | 56 | 1019.2 |
| 20260904233054 | 52 | 117 | 0.0 | 1.0 | 0.00 | 0.00 | 0.00 | 55 | 1019.2 |
| 20260904232519 | 52 | 117 | 0.0 | 4.0 | 0.00 | 0.00 | 0.00 | 56 | 1019.2 |
| 20260904232020 | 52 | 117 | 0.0 | 6.0 | 0.00 | 0.00 | 0.00 | 57 | 1019.1 |
| 20260904231550 | 52 | 118 | 0.0 | 6.0 | 0.00 | 0.00 | 0.00 | 56 | 1019.2 |
| 20260904231018 | 53 | 118 | 0.0 | 1.0 | 0.00 | 0.00 | 0.00 | 56 | 1018.9 |
| 20260904230519 | 53 | 117 | 0.0 | 8.0 | 0.00 | 0.00 | 0.00 | 54 | 1018.9 |
| 20260904230045 | 53 | 117 | 0.0 | 8.0 | 0.00 | 0.00 | 0.00 | 56 | 1018.9 |
| 20260904225523 | 53 | 117 | 0.0 | 6.0 | 0.00 | 0.00 | 0.00 | 54 | 1019.0 |
| 20260904225019 | 53 | 117 | 0.0 | 6.0 | 0.00 | 0.00 | 0.00 | 55 | 1019.1 |
| 20260904224547 | 53 | 117 | 0.0 | 10.0 | 0.00 | 0.00 | 0.00 | 56 | 1019.1 |
| 20260904224020 | 53 | 118 | 1.0 | 10.0 | 0.00 | 0.00 | 0.00 | 56 | 1018.9 |
| 20260904223520 | 53 | 117 | 0.0 | 11.0 | 0.00 | 0.00 | 0.00 | 57 | 1018.8 |
| 20260904223043 | 53 | 118 | 2.0 | 12.0 | 0.00 | 0.00 | 0.00 | 56 | 1018.8 |
| 20260904222518 | 54 | 118 | 3.0 | 12.0 | 0.00 | 0.00 | 0.00 | 56 | 1018.8 |
| 20260904222017 | 54 | 117 | 1.0 | 8.0 | 0.00 | 0.00 | 0.00 | 55 | 1018.8 |
| 20260904221541 | 54 | 117 | 0.0 | 4.0 | 0.00 | 0.00 | 0.00 | 56 | 1018.8 |
| 20260904221019 | 54 | 116 | 0.0 | 6.0 | 0.00 | 0.00 | 0.00 | 55 | 1018.7 |
| 20260904220520 | 54 | 117 | 1.0 | 9.0 | 0.00 | 0.00 | 0.00 | 57 | 1018.7 |
| 20260904220049 | 54 | 117 | 0.0 | 9.0 | 0.00 | 0.00 | 0.00 | 57 | 1018.9 |
| 20260904215518 | 54 | 121 | 0.0 | 9.0 | 0.00 | 0.00 | 0.00 | 57 | 1018.7 |
| 20260904215017 | 54 | 118 | 3.0 | 9.0 | 0.00 | 0.00 | 0.00 | 56 | 1018.7 |
| 20260904214548 | 54 | 119 | 1.0 | 10.0 | 0.00 | 0.00 | 0.00 | 58 | 1018.7 |
| 20260904214024 | 54 | 119 | 3.0 | 10.0 | 0.00 | 0.00 | 0.00 | 56 | 1018.8 |
| 20260904213520 | 55 | 118 | 2.0 | 10.0 | 0.00 | 0.00 | 0.00 | 58 | 1018.6 |
| 20260904213049 | 54 | 118 | 2.0 | 10.0 | 0.00 | 0.00 | 0.00 | 58 | 1018.8 |
| 20260904212516 | 54 | 117 | 1.0 | 8.0 | 0.00 | 0.00 | 0.00 | 58 | 1018.8 |
| 20260904212021 | 55 | 116 | 1.0 | 8.0 | 0.00 | 0.00 | 0.00 | 58 | 1018.8 |
| 20260904211543 | 54 | 117 | 0.0 | 10.0 | 0.00 | 0.00 | 0.00 | 60 | 1018.6 |
| 20260904210518 | 54 | 117 | 1.0 | 8.0 | 0.00 | 0.00 | 0.00 | 59 | 1018.6 |
| 20260904210046 | 53 | 117 | 1.0 | 8.0 | 0.00 | 0.00 | 0.00 | 62 | 1018.6 |
| 20260904205517 | 52 | 117 | 1.0 | 9.0 | 0.00 | 0.00 | 0.00 | 63 | 1018.4 |
| 20260904205020 | 51 | 117 | 1.0 | 9.0 | 0.00 | 0.00 | 0.00 | 63 | 1018.2 |
| 20260904204548 | 50 | 117 | 2.0 | 9.0 | 0.00 | 0.00 | 0.00 | 64 | 1018.3 |
| 20260904204019 | 50 | 117 | 0.0 | 6.0 | 0.00 | 0.00 | 0.00 | 62 | 1018.2 |
| 20260904203518 | 51 | 117 | 0.0 | 6.0 | 0.00 | 0.00 | 0.00 | 62 | 1018.2 |
| 20260904203047 | 50 | 117 | 0.0 | 6.0 | 0.00 | 0.00 | 0.00 | 61 | 1018.4 |
| 20260904201544 | 50 | 119 | 0.0 | 6.0 | 0.00 | 0.00 | 0.00 | 62 | 1018.2 |
| 20260904200519 | 49 | 117 | 0.0 | 7.0 | 0.00 | 0.00 | 0.00 | 60 | 1018.1 |
| 20260904200045 | 49 | 117 | 0.0 | 4.0 | 0.00 | 0.00 | 0.00 | 60 | 1018.1 |
| 20260904195518 | 49 | 116 | 0.0 | 0.0 | 0.00 | 0.00 | 0.00 | 58 | 1018.1 |
| 20260904195018 | 48 | 117 | 0.0 | 0.0 | 0.00 | 0.00 | 0.00 | 61 | 1018.1 |
| 20260904194549 | 48 | 117 | 0.0 | 0.0 | 0.00 | 0.00 | 0.00 | 60 | 1018.2 |
| 20260904194020 | 48 | 117 | 0.0 | 0.0 | 0.00 | 0.00 | 0.00 | 62 | 1018.1 |
| 20260904193518 | 48 | 117 | 0.0 | 0.0 | 0.00 | 0.00 | 0.00 | 63 | 1018.0 |
| 20260904193048 | 48 | 117 | 0.0 | 1.0 | 0.00 | 0.00 | 0.00 | 65 | 1017.9 |
| 20260904192521 | 48 | 117 | 0.0 | 3.0 | 0.00 | 0.00 | 0.00 | 64 | 1017.9 |
| 20260904191543 | 48 | 117 | 0.0 | 4.0 | 0.00 | 0.00 | 0.00 | 66 | 1018.0 |
| 20260904190041 | 49 | 117 | 0.0 | 4.0 | 0.00 | 0.00 | 0.00 | 67 | 1017.9 |
| 20260904185517 | 49 | 117 | 0.0 | 7.0 | 0.00 | 0.00 | 0.00 | 66 | 1017.8 |
| 20260904185017 | 50 | 120 | 0.0 | 9.0 | 0.00 | 0.00 | 0.00 | 66 | 1018.0 |
| 20260904184601 | 50 | 117 | 0.0 | 9.0 | 0.00 | 0.00 | 0.00 | 66 | 1017.8 |
| 20260904184017 | 52 | 117 | 1.0 | 8.0 | 0.00 | 0.00 | 0.00 | 63 | 1017.9 |
| 20260904183519 | 52 | 117 | 1.0 | 8.0 | 0.00 | 0.00 | 0.00 | 64 | 1017.8 |
| 20260904183045 | 52 | 117 | 1.0 | 7.0 | 0.00 | 0.00 | 0.00 | 63 | 1017.6 |
| 20260904182023 | 52 | 117 | 0.0 | 9.0 | 0.00 | 0.00 | 0.00 | 65 | 1017.6 |
| 20260904181543 | 52 | 117 | 0.0 | 4.0 | 0.00 | 0.00 | 0.00 | 68 | 1017.5 |
| 20260904181022 | 52 | 117 | 0.0 | 4.0 | 0.00 | 0.00 | 0.00 | 69 | 1017.6 |
| 20260904180520 | 52 | 117 | 0.0 | 8.0 | 0.00 | 0.00 | 0.00 | 67 | 1017.4 |
| 20260904180054 | 52 | 117 | 0.0 | 4.0 | 0.00 | 0.00 | 0.00 | 72 | 1017.4 |
| 20260904175517 | 52 | 117 | 0.0 | 4.0 | 0.00 | 0.00 | 0.00 | 66 | 1017.6 |
| 20260904175017 | 52 | 117 | 0.0 | 6.0 | 0.00 | 0.00 | 0.00 | 67 | 1017.5 |
| 20260904174549 | 53 | 118 | 0.0 | 6.0 | 0.00 | 0.00 | 0.00 | 69 | 1017.4 |
| 20260904174018 | 53 | 117 | 0.0 | 7.0 | 0.00 | 0.00 | 0.00 | 70 | 1017.4 |
| 20260904173050 | 54 | 117 | 0.0 | 8.0 | 0.00 | 0.00 | 0.00 | 69 | 1017.4 |
| 20260904171558 | 53 | 117 | 0.0 | 7.0 | 0.00 | 0.00 | 0.00 | 74 | 1017.3 |
| 20260904171019 | 53 | 117 | 0.0 | 6.0 | 0.00 | 0.00 | 0.00 | 69 | 1017.2 |
| 20260904170558 | 53 | 117 | 0.0 | 3.0 | 0.00 | 0.00 | 0.00 | 73 | 1017.1 |
| 20260904165517 | 52 | 117 | 1.0 | 8.0 | 0.00 | 0.00 | 0.00 | 75 | 1017.1 |
| 20260904165022 | 52 | 117 | 0.0 | 7.0 | 0.00 | 0.00 | 0.00 | 75 | 1017.1 |
| 20260904164548 | 53 | 117 | 0.0 | 3.0 | 0.00 | 0.00 | 0.00 | 71 | 1017.1 |
| 20260904164018 | 53 | 117 | 0.0 | 0.0 | 0.00 | 0.00 | 0.00 | 73 | 1016.9 |
| 20260904163519 | 52 | 117 | 0.0 | 3.0 | 0.00 | 0.00 | 0.00 | 72 | 1016.9 |
| 20260904163050 | 52 | 117 | 0.0 | 3.0 | 0.00 | 0.00 | 0.00 | 71 | 1016.9 |
| 20260904161552 | 52 | 116 | 0.0 | 0.0 | 0.00 | 0.00 | 0.00 | 73 | 1016.9 |